VCTRY67 KBHM-

Flight info

Callsign VCTRY67
Flight time N/A
Altitude VFR
Route VFR W
Aircraft F14/M-DOV/C

Departure

Time 2026-04-25 00:36
Airport Birmingham-Shuttlesworth International Airport (KBHM)

Arrival

Time N/A
Airport -
Time Latitude Longitude Altitude Speed Heading
2026-04-25 00:29 33.56714 -86.75546 623 ft 0 kts 146°
2026-04-25 00:31 33.56702 -86.75537 627 ft 7 kts 146°
2026-04-25 00:31 33.56701 -86.75466 627 ft 12 kts 54°
2026-04-25 00:32 33.56763 -86.75358 625 ft 20 kts 56°
2026-04-25 00:32 33.56814 -86.75252 626 ft 9 kts 79°
2026-04-25 00:32 33.56775 -86.75173 631 ft 14 kts 134°
2026-04-25 00:32 33.56693 -86.75074 628 ft 20 kts 136°
2026-04-25 00:33 33.56598 -86.74942 626 ft 19 kts 104°
2026-04-25 00:33 33.56636 -86.74800 635 ft 20 kts 54°
2026-04-25 00:33 33.56727 -86.74643 634 ft 26 kts 55°
2026-04-25 00:33 33.56834 -86.74457 634 ft 27 kts 55°
2026-04-25 00:34 33.56938 -86.74275 636 ft 25 kts 56°
2026-04-25 00:34 33.57035 -86.74110 630 ft 24 kts 54°
2026-04-25 00:34 33.57125 -86.73953 633 ft 21 kts 55°
2026-04-25 00:34 33.57204 -86.73833 639 ft 12 kts 17°
2026-04-25 00:35 33.57263 -86.73856 639 ft 0 kts 323°
2026-04-25 00:35 33.57281 -86.73871 637 ft 0 kts 323°
2026-04-25 00:35 33.57284 -86.73874 637 ft 8 kts 318°
2026-04-25 00:35 33.57288 -86.74022 637 ft 27 kts 236°
2026-04-25 00:36 33.56817 -86.74837 634 ft 212 kts 233°
2026-04-25 00:36 33.55619 -86.76921 822 ft 364 kts 236°
2026-04-25 00:36 33.54934 -86.78243 7854 ft 169 kts 239°
2026-04-25 00:36 33.54116 -86.79781 11788 ft 283 kts 239°
2026-04-25 00:37 33.52936 -86.82190 12835 ft 386 kts 247°
2026-04-25 00:37 33.51749 -86.85534 14204 ft 497 kts 249°
2026-04-25 00:37 33.50331 -86.89788 15961 ft 595 kts 250°
2026-04-25 00:37 33.47162 -86.91582 17511 ft 664 kts 168°
2026-04-25 00:38 33.43359 -86.87954 11867 ft 816 kts 110°
2026-04-25 00:38 33.45063 -86.81399 7209 ft 930 kts 33°
2026-04-25 00:38 33.50928 -86.77860 2724 ft 962 kts 29°
2026-04-25 00:38 33.56495 -86.75136 2485 ft 899 kts 311°
2026-04-25 00:39 33.57831 -86.80815 11955 ft 513 kts 272°
2026-04-25 00:39 33.57959 -86.85062 24562 ft 551 kts 274°
2026-04-25 00:39 33.58214 -86.90258 28003 ft 664 kts 273°
2026-04-25 00:39 33.58485 -86.95930 30315 ft 693 kts 272°
2026-04-25 00:40 33.58512 -87.01591 34513 ft 670 kts 269°
2026-04-25 00:40 33.58397 -87.06998 40252 ft 633 kts 268°
2026-04-25 00:40 33.58197 -87.12405 42987 ft 673 kts 268°
2026-04-25 00:40 33.58031 -87.18193 41446 ft 728 kts 269°
2026-04-25 00:41 33.57899 -87.24498 40770 ft 796 kts 269°
2026-04-25 00:41 33.57730 -87.31360 41310 ft 849 kts 268°
2026-04-25 00:41 33.57503 -87.38695 41267 ft 912 kts 268°
2026-04-25 00:41 33.57256 -87.46589 41272 ft 975 kts 268°
2026-04-25 00:42 33.56845 -87.54848 41489 ft 1031 kts 266°
2026-04-25 00:42 33.56421 -87.63649 41367 ft 1085 kts 267°
2026-04-25 00:42 33.56059 -87.72907 41301 ft 1131 kts 268°
2026-04-25 00:42 33.55742 -87.82492 41356 ft 1165 kts 268°
2026-04-25 00:43 33.55452 -87.92316 41102 ft 1193 kts 268°
2026-04-25 00:43 33.55180 -88.02344 41342 ft 1211 kts 268°
2026-04-25 00:43 33.54898 -88.12388 41820 ft 1221 kts 268°
2026-04-25 00:43 33.54630 -88.22626 42332 ft 1228 kts 269°
2026-04-25 00:44 33.54335 -88.32874 42746 ft 1234 kts 268°
2026-04-25 00:44 33.54041 -88.43183 42934 ft 1239 kts 268°
2026-04-25 00:44 33.53763 -88.53423 41702 ft 1253 kts 268°
2026-04-25 00:44 33.53472 -88.63866 42079 ft 1252 kts 268°
2026-04-25 00:45 33.53172 -88.74322 42586 ft 1250 kts 268°
2026-04-25 00:45 33.52882 -88.84754 43004 ft 1248 kts 268°
2026-04-25 00:45 33.52598 -88.95151 43274 ft 1247 kts 269°
2026-04-25 00:45 33.52244 -89.05567 43213 ft 1248 kts 268°
2026-04-25 00:46 33.51896 -89.15852 42911 ft 1251 kts 268°
2026-04-25 00:46 33.51523 -89.26273 43257 ft 1248 kts 268°
2026-04-25 00:46 33.50742 -89.46958 45450 ft 1234 kts 268°
2026-04-25 00:47 33.50382 -89.57238 46262 ft 1230 kts 268°
2026-04-25 00:47 33.50050 -89.67375 46777 ft 1229 kts 268°
2026-04-25 00:47 33.49699 -89.77652 46924 ft 1232 kts 268°
2026-04-25 00:47 33.49256 -89.87958 46816 ft 1236 kts 267°
2026-04-25 00:48 33.48650 -89.98132 46636 ft 1239 kts 267°
2026-04-25 00:48 33.47582 -90.18775 46587 ft 1242 kts 267°
2026-04-25 00:49 33.46554 -90.39436 46578 ft 1242 kts 267°
2026-04-25 00:49 33.45589 -90.60147 46578 ft 1243 kts 267°
2026-04-25 00:50 33.44689 -90.80756 46572 ft 1244 kts 268°
2026-04-25 00:50 33.43851 -91.01488 46523 ft 1245 kts 268°
2026-04-25 00:51 33.43069 -91.22249 46539 ft 1245 kts 268°
2026-04-25 00:51 33.42355 -91.42851 46561 ft 1244 kts 268°
2026-04-25 00:52 33.41686 -91.63574 46560 ft 1244 kts 268°
2026-04-25 00:52 33.41370 -91.73720 46510 ft 1174 kts 268°
2026-04-25 00:52 33.41132 -91.82930 42142 ft 1020 kts 268°
2026-04-25 00:52 33.40610 -91.90652 27995 ft 921 kts 263°
2026-04-25 00:53 33.40702 -91.97582 13460 ft 921 kts 274°
2026-04-25 00:53 33.40880 -92.04528 11812 ft 728 kts 270°
2026-04-25 00:53 33.40824 -92.09522 15164 ft 511 kts 269°
2026-04-25 00:53 33.40731 -92.13344 17510 ft 421 kts 269°
2026-04-25 00:54 33.40672 -92.15565 17917 ft 385 kts 269°
2026-04-25 00:54 33.40588 -92.18686 18216 ft 406 kts 269°
2026-04-25 00:54 33.40503 -92.22444 18158 ft 465 kts 269°
2026-04-25 00:54 33.40427 -92.26276 19002 ft 460 kts 269°
2026-04-25 00:55 33.40358 -92.30156 18442 ft 478 kts 269°
2026-04-25 00:55 33.40262 -92.35542 17631 ft 478 kts 269°
2026-04-25 00:55 33.40221 -92.38156 18187 ft 469 kts 270°
2026-04-25 00:55 33.40165 -92.42011 18897 ft 459 kts 269°
2026-04-25 00:56 33.40102 -92.45852 19326 ft 457 kts 269°
2026-04-25 00:56 33.39924 -92.49416 21426 ft 387 kts 265°
2026-04-25 00:56 33.39704 -92.52597 22535 ft 390 kts 265°
2026-04-25 00:56 33.39492 -92.55849 22644 ft 393 kts 265°
2026-04-25 00:57 33.39242 -92.59194 23011 ft 422 kts 277°
2026-04-25 00:57 33.39591 -92.62372 27677 ft 353 kts 271°
2026-04-25 00:57 33.39742 -92.65631 31488 ft 430 kts 270°
2026-04-25 00:57 33.39861 -92.69540 32805 ft 512 kts 269°
2026-04-25 00:58 33.39936 -92.74096 33376 ft 592 kts 268°
2026-04-25 00:58 33.39808 -92.79255 34913 ft 638 kts 263°
2026-04-25 00:58 33.39126 -92.84559 37909 ft 651 kts 255°
2026-04-25 00:58 33.37607 -92.89662 41397 ft 666 kts 250°
2026-04-25 00:59 33.36644 -92.95240 42699 ft 710 kts 267°
2026-04-25 00:59 33.36446 -93.01362 43149 ft 759 kts 268°
2026-04-25 00:59 33.36218 -93.07908 43334 ft 817 kts 267°
2026-04-25 00:59 33.35950 -93.14977 43243 ft 883 kts 267°
2026-04-25 01:00 33.35656 -93.22518 43179 ft 948 kts 267°
2026-04-25 01:00 33.35337 -93.30657 43144 ft 1009 kts 267°
2026-04-25 01:00 33.35003 -93.39272 43124 ft 1064 kts 267°
2026-04-25 01:00 33.34657 -93.48337 43113 ft 1110 kts 267°
2026-04-25 01:01 33.34306 -93.57729 43099 ft 1144 kts 267°
2026-04-25 01:01 33.33957 -93.67214 43094 ft 1170 kts 268°
2026-04-25 01:01 33.33607 -93.77052 43115 ft 1189 kts 268°
2026-04-25 01:01 33.33256 -93.87032 43124 ft 1203 kts 268°
2026-04-25 01:02 33.32908 -93.97089 43130 ft 1214 kts 268°
2026-04-25 01:02 33.32230 -94.17315 43112 ft 1227 kts 268°
2026-04-25 01:03 33.31393 -94.37673 43084 ft 1235 kts 264°
2026-04-25 01:03 33.27177 -94.57625 43075 ft 1243 kts 249°
2026-04-25 01:04 33.19399 -94.76059 43076 ft 1249 kts 242°
2026-04-25 01:04 33.10818 -94.94109 43072 ft 1250 kts 242°
2026-04-25 01:05 33.02161 -95.12027 43033 ft 1253 kts 242°
2026-04-25 01:05 32.93409 -95.30069 43048 ft 1254 kts 242°
2026-04-25 01:06 32.84707 -95.48037 43048 ft 1254 kts 242°
2026-04-25 01:06 32.76008 -95.66049 43025 ft 1254 kts 242°
2026-04-25 01:06 32.71739 -95.74899 43021 ft 1214 kts 242°
2026-04-25 01:07 32.67718 -95.83182 42754 ft 1091 kts 242°
2026-04-25 01:07 32.64049 -95.90685 39220 ft 1016 kts 242°
2026-04-25 01:07 32.60612 -95.97625 35683 ft 932 kts 243°
2026-04-25 01:07 32.57456 -96.03873 32582 ft 854 kts 242°
2026-04-25 01:08 32.54823 -96.09892 29588 ft 821 kts 251°
2026-04-25 01:08 32.53193 -96.16816 26346 ft 924 kts 261°
2026-04-25 01:08 32.52581 -96.24737 23316 ft 995 kts 268°
2026-04-25 01:08 32.52538 -96.33029 20043 ft 1032 kts 271°
2026-04-25 01:09 32.52703 -96.41629 16869 ft 1051 kts 271°
2026-04-25 01:09 32.52959 -96.50355 13546 ft 1058 kts 272°
2026-04-25 01:09 32.53291 -96.58933 12936 ft 1045 kts 272°
2026-04-25 01:09 32.53627 -96.67269 7364 ft 1046 kts 272°
2026-04-25 01:10 32.53946 -96.75646 7174 ft 991 kts 272°
2026-04-25 01:10 32.54225 -96.82948 7632 ft 960 kts 272°
2026-04-25 01:10 32.54534 -96.90824 8376 ft 945 kts 273°
2026-04-25 01:10 32.55378 -96.98510 9104 ft 941 kts 281°
2026-04-25 01:11 32.56756 -97.06006 9840 ft 944 kts 282°
2026-04-25 01:11 32.58082 -97.12948 10536 ft 777 kts 283°
2026-04-25 01:11 32.59201 -97.18226 10656 ft 559 kts 287°
2026-04-25 01:11 32.60317 -97.22183 10815 ft 445 kts 290°
2026-04-25 01:12 32.62726 -97.23611 8877 ft 425 kts 355°
2026-04-25 01:12 32.64824 -97.24725 8602 ft 312 kts 283°
2026-04-25 01:12 32.65123 -97.27145 5966 ft 315 kts 273°
2026-04-25 01:12 32.64843 -97.29823 3651 ft 298 kts 176°
2026-04-25 01:13 32.63206 -97.30659 3100 ft 246 kts 203°
2026-04-25 01:13 32.61574 -97.30988 2302 ft 237 kts 180°
2026-04-25 01:13 32.60217 -97.30970 1615 ft 167 kts 178°
2026-04-25 01:13 32.58950 -97.30946 1136 ft 188 kts 181°
2026-04-25 01:14 32.57673 -97.30966 787 ft 178 kts 181°
2026-04-25 01:14 32.56715 -97.30969 697 ft 76 kts 180°
2026-04-25 01:14 32.56472 -97.30970 689 ft 15 kts 184°
2026-04-25 01:14 32.56434 -97.31030 692 ft 5 kts 271°
2026-04-25 01:15 32.56436 -97.31147 694 ft 10 kts 270°
2026-04-25 01:15 32.56393 -97.31186 695 ft 16 kts 182°
2026-04-25 01:15 32.56279 -97.31204 694 ft 7 kts 262°
2026-04-25 01:15 32.56281 -97.31265 697 ft 0 kts 282°